Retour au catalogue

USA 463

ActifMilitaireVLEO
NORAD 62532·PAYLOAD·🇺🇸 United States

Lancé Jan 10, 2025 depuis Vandenberg Space Force Base

Loading…

Prochains Passages (prochaines 24 heures)

TLE

PériméSource: Mike McCants

Époque: Aug 26, 2026, 02:13 UTC

1 62532U 25005A   26238.09303877 0.00000000  00000-0  00000-0 0    01
2 62532  70.0250 226.5361 0003000 202.8662 157.1338 14.96713500    02

Suivez USA 463 en temps réel avec AllMySat

Download on the App Store